Regional Weather Roundup
Issued by NWS

Home | Current Version | Previous Version | Graphics & Text | Print | Product List | Glossary On
Versions: 1 2 3 4 5 6 7 8 9 10 11 12 13 14 15 16 17 18 19 20 21 22 23 24 25 26 27 28 29 30 31 32 33 34 35 36 37 38 39 40 41 42 43 44 45 46 47 48 49 50
246
ASUS45 KBOI 310410
RWRID

IDAHO REGIONAL WEATHER ROUNDUP
NATIONAL WEATHER SERVICE BOISE ID
1000 PM MDT SAT JUL 30 2016

NOTE: "FAIR" INDICATES FEW OR NO CLOUDS BELOW 12000 FEET
WITH NO SIGNIFICANT WEATHER AND/OR OBSTRUCTIONS TO VISIBILITY

IDZ012-014-310500-
SOUTHWEST IDAHO


CITY           SKY/WX    TMP DP  RH WIND       PRES   REMARKS
BOISE          CLEAR     89  34  14 NW7       29.73R
CALDWELL       CLEAR     84  43  23 W7        29.72R
MOUNTAIN HOME  PTCLDY    87  35  15 NW1       29.76R
$$

IDZ016-017-310500-
SOUTHCENTRAL IDAHO


CITY           SKY/WX    TMP DP  RH WIND       PRES   REMARKS
BURLEY         MOCLDY    78  49  35 S17       29.86R
JEROME         PTCLDY    79  47  32 S8        29.87R
TWIN FALLS     PTCLDY    82  46  28 S21G29    29.89R
$$

IDZ019>023-310500-
SOUTHEAST IDAHO


CITY           SKY/WX    TMP DP  RH WIND       PRES   REMARKS
IDAHO FALLS    CLOUDY    79  45  29 S13       29.89R
POCATELLO      PTCLDY    82  40  22 SW10      29.88R
REXBURG        CLOUDY    76  46  34 S13       29.88R
$$

IDZ006-010-011-018-031-032-310500-
CENTRAL IDAHO MOUNTAINS


CITY           SKY/WX    TMP DP  RH WIND       PRES   REMARKS
MCCALL         CLEAR     69  36  29 E3        29.92R
HAILEY         CLEAR     75  39  27 W3        29.95R
STANLEY          N/A     58  29  33 S6        30.04R
SALMON         CLEAR     79  32  18 W5        29.76R
CHALLIS        CLEAR     81  16   9 SW9       29.89R
$$

IDZ002-004-006-007-026-310500-
NORTHERN IDAHO


CITY           SKY/WX    TMP DP  RH WIND       PRES   REMARKS
LEWISTON       CLEAR     88  23   9 SW15G23   29.69R
LOWELL           N/A     72  56  57 N3        29.72R
COEUR D`ALENE  CLEAR     73  37  27 MISG      29.68S
MULLAN PASS    CLEAR     64  37  36 SW8       29.96S
$$




USA.gov is the U.S. government's official web portal to all federal, state and local government web resources and services.